Powrót do katalogu

STARLINK-5951

AktywnyŁącznośćVLEO
NORAD 56918·PAYLOAD·🇺🇸 United States

Wystrzelony Jun 12, 2023 z Cape Canaveral Space Force Station

Loading…

Następne Przeloty (najbliższe 24 godziny)

TLE

ŚwieżeSource: CelesTrak SupGP

Epoka: Sep 14, 2026, 21:07 UTC

1 56918C 23083AU  26257.88034722  .00026328  00000+0  95379-3 0  2574
2 56918  43.0013  82.0204 0001262 258.4654 143.7729 15.27559520    18

Śledź STARLINK-5951 w czasie rzeczywistym z AllMySat

Download on the App Store